DateTimeUTC,F1_A11,F1_S11,BsB_S11,BsG_S11,BsR_S11,BbsB_S11,BbsG_S11,BbsR_S11,BaB_A11,BaG_A11,BaR_A11,Tu_S11,T_S11,Uu_S11,U_S11,P_S11,T1_A11
2021-03-12T07:00:00Z,00000200,21000000,,,,,,,0000.12,-000.05,0000.13,16.5,24.2,,00.0,0636.8,30.9
2021-03-12T07:01:00Z,00000200,21000000,,,,,,,0000.27,0000.23,0000.09,16.5,24.2,,00.0,0636.8,30.9
2021-03-12T07:02:00Z,00000200,21000000,,,,,,,-000.20,-000.14,0000.31,16.6,24.2,,00.0,0636.8,30.9
2021-03-12T07:03:00Z,00000200,61000000,,,,,,,0000.79,0000.94,0000.48,16.6,24.3,,00.0,0636.8,30.9
2021-03-12T07:04:00Z,00000200,41000000,0002.12,0001.23,0000.59,0000.48,0000.16,0000.06,0000.56,0000.60,0000.12,17.1,24.2,,00.0,0637.6,31.0
2021-03-12T07:05:00Z,00000200,01000000,0002.00,0001.12,0000.46,0000.56,0000.03,-000.01,0000.89,0000.28,0000.71,17.2,24.2,,00.0,0637.7,31.0
2021-03-12T07:06:00Z,00000200,01000000,0001.94,0001.05,0000.73,0000.34,0000.27,0000.16,0000.51,0000.97,0000.43,17.2,24.2,,00.0,0637.7,31.0
2021-03-12T07:07:00Z,00000200,01000000,0001.16,0000.90,0000.61,0000.55,0000.12,0000.12,0000.69,0000.37,0000.46,17.3,24.2,,00.0,0637.7,31.0
2021-03-12T07:08:00Z,00000200,01000000,0001.37,0000.93,0000.73,0000.68,0000.07,-000.06,0000.69,0000.78,0000.41,17.3,24.3,,00.0,0637.7,31.0
2021-03-12T07:09:00Z,00000200,01000000,0001.52,0001.14,0000.37,0000.63,0000.23,0000.01,0000.29,0000.14,-000.08,17.3,24.3,,00.0,0637.7,31.0
2021-03-12T07:10:00Z,00000200,01000000,0001.70,0000.99,0000.48,0000.98,0000.09,-000.05,0000.29,0000.76,0000.46,17.3,24.2,,00.0,0637.7,30.9
2021-03-12T07:11:00Z,00000200,01000000,0001.90,0000.77,0000.70,-000.06,0000.13,0000.04,0000.59,0000.36,0000.24,17.2,24.2,,00.0,0637.7,30.9
2021-03-12T07:12:00Z,00000200,01000000,0001.41,0000.88,0000.64,0000.36,0000.12,0000.05,0000.49,0000.35,0000.30,17.2,24.2,,00.0,0637.7,30.9
2021-03-12T07:13:00Z,00000200,01000000,0002.00,0000.91,0000.59,0000.46,0000.11,0000.08,0000.33,0000.16,0000.26,17.2,24.2,,00.0,0637.7,30.9
2021-03-12T07:14:00Z,00000200,01000000,0001.81,0000.94,0000.86,0000.44,0000.18,0000.18,0000.45,0000.29,0000.53,17.2,24.2,,00.0,0637.7,30.9
2021-03-12T07:15:00Z,00000200,01000000,0001.07,0001.26,0000.63,0000.16,0000.26,0000.13,0000.90,0000.90,0000.38,17.3,24.2,,00.0,0637.7,30.9
2021-03-12T07:16:00Z,00000200,01000000,0001.69,0000.90,0000.61,0000.52,0000.16,-000.01,0000.48,0000.30,0000.52,17.3,24.2,,00.0,0637.7,30.9
2021-03-12T07:17:00Z,00000200,01000000,0001.40,0001.13,0000.41,-000.09,0000.02,0000.18,0000.31,0000.23,0000.17,17.4,24.3,,00.0,0637.7,31.0
2021-03-12T07:18:00Z,00000200,01000000,0001.45,0001.25,0000.76,-000.10,0000.16,0000.17,0000.49,0000.40,0000.48,17.4,24.3,,00.0,0637.8,31.0
2021-03-12T07:19:00Z,00000200,01000000,0001.97,0001.15,0000.70,0000.07,-000.02,-000.04,0000.09,0000.27,0000.04,17.5,24.4,,00.0,0637.8,31.0
2021-03-12T07:20:00Z,00000200,01000000,0002.02,0000.88,0000.82,0000.20,0000.17,0000.08,0000.63,0000.48,-000.03,17.5,24.4,,00.0,0637.8,31.0
2021-03-12T07:21:00Z,00000200,01000000,0001.21,0001.09,0000.53,0000.41,0000.07,0000.23,0000.47,0000.87,0000.60,17.5,24.4,,00.0,0637.7,31.0
2021-03-12T07:22:00Z,00000200,01000000,0001.84,0000.84,0000.47,0000.25,0000.19,-000.11,0000.57,0000.19,0000.36,17.5,24.4,,00.0,0637.7,31.0
2021-03-12T07:23:00Z,00000200,01000000,0001.81,0000.76,0000.48,0000.64,0000.07,-000.05,0000.46,0000.50,0000.42,17.4,24.4,,00.0,0637.7,31.0
2021-03-12T07:24:00Z,00000200,01000000,0001.48,0000.99,0000.47,0000.25,0000.28,0000.23,0000.30,0000.61,0000.19,17.4,24.3,,00.0,0637.7,30.9
2021-03-12T07:25:00Z,00000200,01000000,0001.45,0000.86,0000.73,0000.27,0000.25,0000.10,0000.53,-000.09,0000.43,17.3,24.3,,00.0,0637.7,30.9
2021-03-12T07:26:00Z,00000200,01000000,0001.59,0000.99,0000.44,-000.03,0000.28,0000.13,0000.49,0000.55,0000.34,17.3,24.3,,00.0,0637.7,30.9
2021-03-12T07:27:00Z,00000200,01000000,0002.01,0000.93,0000.45,0000.53,0000.12,0000.09,0000.37,0000.33,0000.09,17.2,24.3,,00.0,0637.7,30.9
2021-03-12T07:28:00Z,00000200,01000000,0001.41,0000.87,0000.61,0000.04,0000.14,-000.03,0000.95,0000.69,0000.88,17.2,24.2,,00.0,0637.7,30.9
2021-03-12T07:29:00Z,00000200,01000000,0001.61,0000.74,0000.61,0000.36,0000.09,0000.16,0000.57,0000.66,0000.18,17.3,24.2,,00.0,0637.7,30.9
2021-03-12T07:30:00Z,00000200,01000000,0001.23,0000.98,0000.68,0000.28,0000.25,0000.20,0000.37,0000.54,0000.20,17.3,24.3,,00.0,0637.7,30.9
2021-03-12T07:31:00Z,00000200,01000000,0001.51,0001.10,0000.50,0000.19,0000.07,0000.14,0000.15,0000.24,0000.25,17.3,24.3,,00.0,0637.7,30.9
2021-03-12T07:32:00Z,00000200,01000000,0001.17,0000.62,0000.54,0000.46,0000.10,-000.05,0000.91,0000.46,0000.58,17.4,24.3,,00.0,0637.7,30.9
2021-03-12T07:33:00Z,00000200,01000000,0002.15,0000.95,0000.60,0000.17,0000.32,-000.09,0000.25,0000.21,-000.21,17.3,24.3,,00.0,0637.7,30.9
2021-03-12T07:34:00Z,00000200,01000000,0001.46,0000.91,0000.57,0000.85,0000.06,0000.03,0000.61,0000.65,0000.62,17.3,24.3,,00.0,0637.7,30.9
2021-03-12T07:35:00Z,00000200,01000000,0001.68,0000.73,0000.94,0000.39,0000.07,0000.24,0000.24,0000.34,-000.01,17.3,24.3,,00.0,0637.6,30.9
2021-03-12T07:36:00Z,00000200,01000000,0001.37,0001.06,0000.58,-000.07,0000.19,0000.39,0000.68,0000.48,0000.59,17.2,24.3,,00.0,0637.6,30.9
2021-03-12T07:37:00Z,00000200,01000000,0001.44,0000.67,0000.50,-000.01,0000.05,0000.20,0000.50,0000.44,0000.39,17.1,24.2,,00.0,0637.6,30.9
2021-03-12T07:38:00Z,00000200,01000000,0001.18,0000.92,0000.56,-000.29,0000.28,0000.07,0000.41,0000.76,0000.24,17.1,24.2,,00.0,0637.7,30.9
2021-03-12T07:39:00Z,00000200,01000000,0001.69,0000.99,0000.40,-000.25,0000.34,-000.28,0000.74,0000.19,0000.27,17.0,24.2,,00.0,0637.7,30.9
2021-03-12T07:40:00Z,00000200,01000000,0001.41,0000.61,0000.37,0000.38,0000.17,0000.07,0000.31,0000.55,0000.39,17.0,24.1,,00.0,0637.6,30.9
2021-03-12T07:41:00Z,00000200,01000000,0001.13,0000.72,0000.59,0000.48,0000.19,0000.20,0000.20,0000.04,-000.06,16.9,24.1,,00.0,0637.7,30.9
2021-03-12T07:42:00Z,00000200,01000000,0001.18,0001.23,0000.40,-000.03,-000.03,0000.19,0000.33,-000.07,0000.74,16.9,24.1,,00.0,0637.7,30.9
2021-03-12T07:43:00Z,00000200,01000000,0001.32,0000.94,0000.70,0000.03,0000.16,0000.09,0000.44,0001.16,0000.39,16.9,24.0,,00.0,0637.7,30.9
2021-03-12T07:44:00Z,00000200,01000000,0000.77,0000.96,0000.80,0000.63,0000.13,0000.19,0000.50,0000.18,0000.17,16.9,24.0,,00.0,0637.7,30.9
2021-03-12T07:45:00Z,00000200,01000000,0001.39,0001.03,0000.56,0000.23,-000.08,0000.07,0000.36,0000.24,0000.25,17.0,24.0,,00.0,0637.7,30.9
2021-03-12T07:46:00Z,00000200,01000000,0001.68,0000.93,0000.77,0000.17,0000.19,0000.02,0000.55,0000.20,0000.12,17.1,24.1,,00.0,0637.7,30.9
2021-03-12T07:47:00Z,00000200,01000000,0001.72,0000.82,0000.57,0000.08,0000.17,-000.10,-000.22,0000.39,0000.38,17.1,24.1,,00.0,0637.7,30.9
2021-03-12T07:48:00Z,00000200,01000000,0002.12,0001.04,0000.53,-000.04,0000.09,0000.12,0000.83,0000.57,0000.16,17.1,24.1,,00.0,0637.7,30.9
2021-03-12T07:49:00Z,00000200,01000000,0001.74,0001.07,0000.69,0000.66,0000.01,0000.10,0000.37,0000.12,0000.20,17.1,24.1,,00.0,0637.7,30.9
2021-03-12T07:50:00Z,00000200,01000000,0001.34,0001.01,0000.60,0000.41,0000.12,0000.15,0000.50,0000.46,0000.32,17.1,24.1,,00.0,0637.7,30.9
2021-03-12T07:51:00Z,00000200,01000000,0001.69,0000.85,0000.59,0000.45,0000.22,0000.09,0000.50,0000.40,0000.52,17.0,24.1,,00.0,0637.7,30.9
2021-03-12T07:52:00Z,00000200,01000000,0001.27,0000.88,0000.52,0000.49,0000.19,0000.17,0000.16,0000.62,-000.07,16.9,24.0,,00.0,0637.7,30.9
2021-03-12T07:53:00Z,00000200,01000000,0001.94,0000.76,0000.37,0000.20,0000.24,-000.04,0000.37,0000.20,0000.73,16.9,24.0,,00.0,0637.7,30.9
2021-03-12T07:54:00Z,00000200,01000000,0001.42,0000.96,0000.54,0000.29,0000.07,0000.12,0000.81,0000.36,-000.05,16.8,24.0,,00.0,0637.7,30.9
2021-03-12T07:55:00Z,00000200,01000000,0001.00,0000.62,0000.68,0000.30,0000.01,0000.08,0000.30,0000.44,0000.45,16.8,24.0,,00.0,0637.6,30.9
2021-03-12T07:56:00Z,00000200,01000000,0001.57,0000.91,0000.42,0000.49,0000.22,0000.10,0000.62,0000.24,0000.58,16.7,24.0,,00.0,0637.6,30.8
2021-03-12T07:57:00Z,00000200,41000000,,,,,,,0000.05,0000.25,-000.27,16.8,24.0,,00.0,0637.6,30.8
2021-03-12T07:58:00Z,00000200,61000000,,,,,,,0000.11,0000.16,0000.10,16.4,24.1,,00.0,0636.7,30.8
2021-03-12T07:59:00Z,00000200,21000000,,,,,,,-000.15,-000.10,0000.21,16.4,24.2,,00.0,0636.6,30.9
